Showing default

YUNHAI 2-1C, 43911

Orbit data source: Space-Track

YUNHAI 2-1C, 43911 is a payload satellite owned by CASC (CN) in LEO that was launched on Sat, 29 Dec 2018 UTC via a CHANG ZHENG 2D/YZ-3 launch vehicle from the Jiuquan Satellite Launch Center, China (JSC). Payload-class satellites include a variety of spacecraft equipped with specific instruments for various scientific and technological missions. These include communications satellites like Starlink; space stations such as the ISS; scientific satellites like the Hubble; Earth observation satellites from companies like Planet Labs, Umbra, and HawkEye 360; GPS; miniature CubeSats for education and research; and military/defense satellites.

Loading next visibility...
Identifier
43911, 2018-112C
Orbit
LEO
Last TLE update
4 hours ago
Origin
Manufacturer
DFH Shenzhen
Mission
Operational Defense Meteo Radio Occ.
Bus & Motor
YH-2, Unknown motor
Mass
~100 kg wet, ~100 kg dry
Launch date (UTC)
2018-12-29 (6 years ago)
Launch vehicle
CHANG ZHENG 2D/YZ-3
Launch site
Jiuquan Satellite Launch Center, China (JSC)
Object type
Payload
Rocket body
Debris
Shape & HBR
Box + 2 Pan, 1 m
Radar Cross Section
0.166 m², Large (>1 m²)

Expand to show TLE details & history

TLE from 4 hours ago
0 YUNHAI 2-1C
1 43911U 18112C   25129.19409442  .00000217  00000-0  14906-3 0  9996
2 43911  50.0129 261.8989 0000922 163.2641 196.8304 14.28823053334148
Epoch: 2025-05-09T04:39Z
Definitive object data (Epoch: 2025-05-09T04:39:29.757Z)
Latitude
-0.0001°
Longitude
-35.22891°
Altitude
796.833 km
Speed
7.456 km/s
True Right ascension
17h 27m 35s
True Declination
0° 00' 00"
Sunlit
Object was in full shadow at TLE epoch
Visualization TLE readout
Latitude
28.35407°
Longitude
117.30284°
Altitude
796.161 km
Speed
7.46 km/s
Apparent Right ascension
04h 09m 09s
Apparent Declination
-3° 31' 13"
Sunlit
Object is in daylight
Visualization observer readout
Local Sidereal Time
16:49:46
Azimuth
16.789° NNE
Elevation
-52.461°
Doppler factor
1
Orbital elements
Apogee altitude
797.067 km
Perigee altitude
795.744 km
Semi-major axis
7,174.542 km
Eccentricity
0.0000922
Inclination
50.0129°
RAAN
261.8989°
Arg. of periapsis
163.2641°
True anomaly
196.82734°
Mean anomaly
196.8304°
Eccentric anomaly
196.82887°
Mean motion
3.57151 °/min
BSTAR
0.00014906
Orbital period
100.8 mins
Loading maneuver chart data...
Loading SW <> Apogee altitude chart data...
Loading historical data...
Loading historical data...
Loading historical data...
Loading historical data...
Loading historical data...
Loading historical data...
Loading historical data...

YUNHAI 2-1C Visibility forecast

Observer location: undefined°, undefined°

Span
Click to sort rows by Start time (UTC) header in descending order
Start Az.
Max El. time (UTC)
Max El. Az.
Max El.
End time (UTC)
End Az.
9 mins2025-05-09 11:32:34.449Z214.419° SW2025-05-09 11:36:34.449Z149.766° SSE40.329°2025-05-09 11:41:34.449Z63.036° ENE
9 mins2025-05-09 13:18:34.449Z273.236° WNW2025-05-09 13:22:34.449Z343.787° N34.367°2025-05-09 13:27:34.449Z49.852° ENE
7 mins2025-05-09 15:05:34.449Z310.935° NW2025-05-09 15:08:34.449Z353.984° N25.288°2025-05-09 15:12:34.449Z52.031° ENE
8 mins2025-05-09 16:51:34.449Z317.12° NNW2025-05-09 16:55:34.449Z27.613° NE34°2025-05-09 16:59:34.449Z88.181° E
8 mins2025-05-09 18:37:34.449Z292.913° NW2025-05-09 18:40:34.449Z242.494° WSW40.35°2025-05-09 18:45:34.449Z143.309° SSE
|